[[{"header":{"parameterUnit":"m.s-1","parameterCategory":1,"la1":30.2991,"la2":30.254,"lo1":-89.0895,"lo2":-89.0444,"dy":0.0017,"dx":0.0017,"nx":28,"ny":28,"refTime":"2024-06-14T21:00:00:Z","depth":0,"parameterNumber":2,"parameterNumberName":"U-component_of_WINDS"},"data":[0,0,0,0,0,0,0,0,0,0,0,0,0,0,0,0,0,0,0,0,0,0,0,0,0,0,0,0,0,0,0,0,0,0,0,0,0,0,0,0,0,0,0,0,0,0,0,0,0,0,0,0,0,0,0,0,0,0,-1.7349,-1.7349,0,-1.7313,-1.7313,-1.7313,-1.7256,-1.7255,-1.7254,-1.7253,-1.7217,-1.7217,-1.7217,0,0,0,0,0,0,0,0,0,0,0,0,0,-1.7372,-1.7372,-1.7349,-1.7349,-1.7349,-1.7313,-1.7313,-1.7312,-1.7256,-1.7255,-1.7253,-1.7252,-1.7217,-1.7217,-1.7217,0,0,0,0,0,0,0,0,0,0,0,0,0,-1.7352,-1.7372,-1.735,-1.7316,-1.7313,-1.7314,-1.7313,-1.7312,-1.7256,-1.7255,-1.7253,-1.7252,-1.7217,-1.7217,-1.7217,-1.7248,0,0,-1.7217,-1.7217,0,0,0,0,0,0,0,0,-1.7353,-1.7351,-1.7321,-1.7318,-1.7315,-1.7287,-1.7308,-1.7291,-1.7257,-1.7278,-1.7253,-1.7251,-1.7242,-1.724,-1.7236,-1.7247,-1.7245,-1.7217,-1.7217,-1.7217,-1.7217,0,0,0,0,0,0,0,-1.7354,-1.7352,-1.7335,-1.7321,-1.7317,-1.7304,-1.7299,-1.7304,-1.7269,-1.7276,-1.7272,-1.7268,-1.724,-1.7237,-1.7235,-1.7244,-1.7217,-1.7217,-1.7217,-1.7217,-1.7281,-1.7282,0,0,0,0,0,0,-1.736,-1.7354,-1.7336,-1.7334,-1.733,-1.7305,-1.7299,-1.7298,-1.7269,-1.7263,-1.7269,-1.7266,-1.7237,-1.7235,-1.7234,-1.727,-1.7217,-1.7217,-1.7217,-1.7279,-1.7281,-1.7283,0,0,0,0,0,0,-1.7361,-1.7359,-1.7338,-1.7343,-1.7339,-1.7306,-1.7304,-1.7298,-1.7295,-1.7264,-1.7257,-1.7272,-1.7236,-1.7234,-1.7245,-1.7268,-1.7217,-1.7217,-1.7277,-1.728,-1.7282,-1.7341,0,0,0,0,0,0,-1.7362,-1.736,-1.7371,-1.7343,-1.7339,-1.7349,-1.7306,-1.7298,-1.7295,-1.7289,-1.7265,-1.726,-1.7235,-1.7246,-1.7246,-1.7267,-1.7217,-1.7275,-1.7278,-1.7281,-1.7337,-1.7345,-1.7352,0,0,0,0,0,-1.7363,-1.7388,-1.7371,-1.737,-1.7351,-1.7351,-1.7348,-1.7319,-1.7297,-1.7308,-1.7288,-1.726,-1.7265,-1.7247,-1.7247,-1.7268,-1.7274,-1.7277,-1.7281,-1.7333,-1.7344,-1.7352,0,0,0,0,0,0,-1.7419,-1.7384,-1.7365,-1.7382,-1.737,-1.7341,-1.7354,-1.733,-1.7324,-1.7319,-1.7283,-1.7278,-1.7295,-1.7283,-1.7263,-1.7298,-1.7265,-1.7269,-1.7305,-1.7315,-1.7322,-1.7325,-1.7217,0,0,0,0,0,-1.7433,-1.7435,-1.7405,-1.7423,-1.7418,-1.7387,-1.7386,-1.7364,-1.735,-1.7345,-1.7326,-1.7314,-1.7313,-1.7313,-1.731,-1.7335,-1.733,-1.735,-1.7357,-1.7364,-1.7368,-1.7382,-1.7391,-1.7295,-1.7295,-1.7295,0,0,-1.7463,-1.7444,-1.7447,-1.7434,-1.7421,-1.7425,-1.7383,-1.7388,-1.7391,-1.7345,-1.7356,-1.7342,-1.7326,-1.7346,-1.7353,-1.7336,-1.7393,-1.7369,-1.7374,-1.7374,-1.7387,-1.7396,-1.7404,-1.7298,-1.7298,-1.7297,0,0,-1.7518,-1.7504,-1.7518,-1.7507,-1.749,-1.747,-1.7474,-1.7449,-1.7438,-1.7448,-1.7415,-1.7418,-1.7416,-1.7407,-1.7403,-1.7458,-1.7433,-1.7458,-1.7498,-1.7513,-1.752,-1.7527,-1.7548,-1.7556,-1.7462,-1.7462,-1.7462,0,-1.7557,-1.7561,-1.7529,-1.7537,-1.7532,-1.7492,-1.7507,-1.7498,-1.7481,-1.748,-1.7461,-1.746,-1.7446,-1.7463,-1.7477,-1.7474,-1.7479,-1.7461,-1.7522,-1.7528,-1.7534,-1.7554,-1.7562,-1.7465,-1.7465,-1.7465,-1.7464,0,-1.761,-1.7614,-1.7628,-1.7612,-1.761,-1.7621,-1.7592,-1.7594,-1.7573,-1.7556,-1.7568,-1.755,-1.7544,-1.7547,-1.7526,-1.7562,-1.7552,-1.7528,-1.7494,-1.7547,-1.7565,-1.7572,-1.747,-1.7469,-1.7468,-1.7467,0,0,-1.7699,-1.7668,-1.7673,-1.7667,-1.7646,-1.7648,-1.7659,-1.7653,-1.7656,-1.7646,-1.7655,-1.7656,-1.7634,-1.7629,-1.7607,-1.762,-1.7667,-1.7594,-1.7594,-1.761,-1.7708,-1.7727,-1.7736,-1.7651,-1.7652,-1.7653,-1.771,0,-1.7751,-1.7767,-1.774,-1.7762,-1.7766,-1.7729,-1.7739,-1.7728,-1.7712,-1.7714,-1.7697,-1.7699,-1.7669,-1.7666,-1.7677,-1.7659,-1.7687,-1.7655,-1.766,-1.7661,-1.7666,-1.7746,-1.7765,-1.782,-1.7717,-1.7718,-1.7719,0,-1.7814,-1.7808,-1.7831,-1.7811,-1.7811,-1.782,-1.7814,-1.7816,-1.7803,-1.7791,-1.7787,-1.7762,-1.7773,-1.774,-1.7756,-1.7734,-1.7735,-1.7728,-1.7729,-1.7729,-1.7693,-1.7749,-1.7836,-1.7845,-1.7729,-1.7728,-1.7728,0,-1.7878,-1.7876,-1.789,-1.7885,-1.7861,-1.7869,-1.786,-1.7846,-1.7845,-1.784,-1.7839,-1.7835,-1.7834,-1.7832,-1.7808,-1.7786,-1.7827,-1.7792,-1.7819,-1.782,-1.7829,-1.7829,-1.7919,-1.7828,-1.7828,-1.7828,-1.7828,0,-1.7939,-1.7955,-1.7919,-1.7927,-1.7945,-1.7914,-1.7933,-1.792,-1.7908,-1.7915,-1.7883,-1.789,-1.7856,-1.7861,-1.7842,-1.7859,-1.7858,-1.7849,-1.7844,-1.7853,-1.7854,-1.7853,-1.7849,-1.783,-1.783,-1.7829,-1.7829,0,-1.8014,-1.7989,-1.8003,-1.798,-1.7975,-1.7989,-1.797,-1.7978,-1.7961,-1.797,-1.797,-1.7944,-1.7948,-1.7923,-1.7922,-1.7909,-1.7936,-1.7924,-1.794,-1.7937,-1.7965,-1.7964,-1.8059,-1.807,-1.7972,-1.7972,-1.7973,0,-1.8055,-1.8067,-1.8045,-1.8048,-1.804,-1.8044,-1.8043,-1.8014,-1.8015,-1.8003,-1.8013,-1.8014,-1.8013,-1.8021,-1.8002,-1.8002,-1.799,-1.8024,-1.799,-1.7999,-1.7993,-1.7993,-1.7995,-1.8031,-1.8032,-1.8033,-1.8034,0,-1.8131,-1.8119,-1.8119,-1.8116,-1.8116,-1.8112,-1.8106,-1.811,-1.8078,-1.8081,-1.8084,-1.8084,-1.8084,-1.8086,-1.8082,-1.8073,-1.805,-1.8045,-1.8051,-1.8061,-1.807,-1.8067,-1.7961,-1.8043,-1.8042,-1.8041,-1.8041,-1.8041,-1.8191,-1.82,-1.8188,-1.8189,-1.8182,-1.8178,-1.8185,-1.8169,-1.8172,-1.8169,-1.8152,-1.8159,-1.8149,-1.8141,-1.8136,-1.8142,-1.8126,-1.8135,-1.8137,-1.814,-1.8146,-1.8069,-1.8141,-1.814,-1.814,-1.814,-1.814,0,-1.8266,-1.8257,-1.8259,-1.8252,-1.8254,-1.8231,-1.8224,-1.8227,-1.8234,-1.8226,-1.8227,-1.8232,-1.8234,-1.8217,-1.8217,-1.8226,-1.8215,-1.8227,-1.8227,-1.8226,-1.8159,-1.8154,-1.8236,-1.8236,-1.8236,-1.8236,-1.8236,-1.8236,-1.8306,-1.8322,-1.8309,-1.8321,-1.8312,-1.8318,-1.8317,-1.8313,-1.8307,-1.8314,-1.8316,-1.8305,-1.8294,-1.8294,-1.8296,-1.8291,-1.8293,-1.831,-1.8301,-1.8239,-1.823,-1.8221,-1.8216,-1.831,-1.831,-1.8367,-1.8368,-1.8368]},{"header":{"parameterUnit":"m.s-1","parameterCategory":1,"la1":30.2991,"la2":30.254,"lo1":-89.0895,"lo2":-89.0444,"dy":0.0017,"dx":0.0017,"nx":28,"ny":28,"refTime":"2024-06-14T21:00:00:Z","depth":0,"parameterNumber":3,"parameterNumberName":"V-component_of_WINDS"},"data":[0,0,0,0,0,0,0,0,0,0,0,0,0,0,0,0,0,0,0,0,0,0,0,0,0,0,0,0,0,0,0,0,0,0,0,0,0,0,0,0,0,0,0,0,0,0,0,0,0,0,0,0,0,0,0,0,0,0,0.2569,0.2569,0,0.2571,0.2571,0.2571,0.2574,0.2574,0.2574,0.2574,0.2576,0.2576,0.2576,0,0,0,0,0,0,0,0,0,0,0,0,0,0.2566,0.2566,0.2569,0.2569,0.2569,0.2571,0.2571,0.2571,0.2574,0.2574,0.2574,0.2574,0.2576,0.2576,0.2576,0,0,0,0,0,0,0,0,0,0,0,0,0,0.2568,0.2566,0.2569,0.2571,0.2571,0.2571,0.2571,0.2571,0.2574,0.2574,0.2574,0.2574,0.2576,0.2576,0.2576,0.2575,0,0,0.2576,0.2576,0,0,0,0,0,0,0,0,0.2568,0.2568,0.257,0.257,0.2571,0.2572,0.2571,0.2572,0.2574,0.2573,0.2574,0.2574,0.2575,0.2575,0.2575,0.2575,0.2575,0.2576,0.2576,0.2577,0.2577,0,0,0,0,0,0,0,0.2567,0.2568,0.257,0.257,0.257,0.2571,0.2571,0.2571,0.2573,0.2573,0.2573,0.2573,0.2575,0.2575,0.2575,0.2575,0.2576,0.2576,0.2577,0.2577,0.2572,0.2572,0,0,0,0,0,0,0.2567,0.2568,0.257,0.257,0.2569,0.2571,0.2571,0.2572,0.2573,0.2574,0.2573,0.2573,0.2575,0.2575,0.2575,0.2573,0.2577,0.2577,0.2577,0.2572,0.2572,0.2572,0,0,0,0,0,0,0.2567,0.2567,0.2569,0.2569,0.2569,0.2571,0.2571,0.2572,0.2572,0.2574,0.2574,0.2573,0.2575,0.2575,0.2575,0.2573,0.2577,0.2577,0.2573,0.2572,0.2572,0.2568,0,0,0,0,0,0,0.2567,0.2567,0.2567,0.2569,0.2569,0.2569,0.2571,0.2572,0.2572,0.2572,0.2574,0.2574,0.2575,0.2575,0.2575,0.2573,0.2577,0.2573,0.2573,0.2572,0.2569,0.2568,0.2568,0,0,0,0,0,0.2567,0.2567,0.2567,0.2567,0.2569,0.2569,0.2569,0.2571,0.2572,0.2571,0.2572,0.2574,0.2573,0.2575,0.2575,0.2573,0.2573,0.2573,0.2572,0.2569,0.2568,0.2568,0,0,0,0,0,0,0.2565,0.2567,0.2568,0.2568,0.2568,0.2569,0.2569,0.257,0.257,0.2571,0.2573,0.2573,0.2572,0.2572,0.2574,0.2571,0.2573,0.2573,0.2571,0.257,0.2569,0.2569,0.2577,0,0,0,0,0,0.2565,0.2565,0.2566,0.2566,0.2566,0.2568,0.2568,0.2569,0.2569,0.2569,0.257,0.2571,0.257,0.257,0.257,0.2569,0.2568,0.2568,0.2567,0.2566,0.2566,0.2564,0.2563,0.2571,0.2571,0.2571,0,0,0.2564,0.2565,0.2565,0.2566,0.2566,0.2566,0.2568,0.2568,0.2567,0.2569,0.2568,0.2569,0.2569,0.2568,0.2567,0.2568,0.2564,0.2566,0.2566,0.2566,0.2563,0.2563,0.2562,0.2571,0.2571,0.2571,0,0,0.2563,0.2564,0.2563,0.2563,0.2563,0.2564,0.2564,0.2564,0.2565,0.2564,0.2565,0.2564,0.2564,0.2564,0.2564,0.256,0.2561,0.256,0.2557,0.2555,0.2554,0.2553,0.2551,0.255,0.2559,0.2559,0.2559,0,0.2562,0.2561,0.2563,0.2562,0.2561,0.2563,0.2561,0.2562,0.2562,0.2561,0.2563,0.2561,0.2562,0.2559,0.2558,0.2559,0.2558,0.256,0.2554,0.2553,0.2553,0.255,0.255,0.2559,0.2559,0.2559,0.2559,0,0.256,0.2559,0.2558,0.2558,0.2557,0.2556,0.2557,0.2556,0.2557,0.2557,0.2555,0.2555,0.2555,0.2554,0.2555,0.2552,0.2552,0.2554,0.2556,0.2552,0.2549,0.2549,0.2559,0.2559,0.2559,0.2559,0,0,0.2558,0.2557,0.2557,0.2556,0.2555,0.2554,0.2553,0.2552,0.255,0.255,0.2548,0.2547,0.2548,0.2548,0.2549,0.2547,0.2542,0.2549,0.2549,0.2547,0.2537,0.2535,0.2534,0.2543,0.2543,0.2543,0.2536,0,0.2556,0.2553,0.2553,0.255,0.2549,0.2549,0.2548,0.2547,0.2547,0.2545,0.2545,0.2544,0.2546,0.2545,0.2543,0.2543,0.254,0.2544,0.2541,0.254,0.254,0.2533,0.2532,0.2526,0.2536,0.2535,0.2535,0,0.2553,0.2552,0.2548,0.2546,0.2546,0.2544,0.2542,0.2541,0.254,0.254,0.2538,0.2539,0.2537,0.2539,0.2535,0.2537,0.2536,0.2536,0.2535,0.2535,0.2537,0.2531,0.2524,0.2523,0.2534,0.2534,0.2534,0,0.2551,0.2548,0.2546,0.2545,0.2543,0.2541,0.2541,0.2539,0.2538,0.2536,0.2535,0.2533,0.2532,0.253,0.253,0.2532,0.2526,0.2529,0.2525,0.2525,0.2524,0.2524,0.2515,0.2524,0.2524,0.2524,0.2524,0,0.2548,0.2546,0.2544,0.2543,0.2539,0.2539,0.2536,0.2535,0.2534,0.2531,0.2532,0.253,0.253,0.2527,0.2527,0.2523,0.2523,0.2522,0.2522,0.2522,0.2522,0.2521,0.2521,0.2524,0.2524,0.2524,0.2524,0,0.2546,0.2545,0.2541,0.2539,0.2538,0.2536,0.2534,0.2532,0.2531,0.2528,0.2527,0.2526,0.2523,0.2522,0.2519,0.2519,0.2514,0.2515,0.2514,0.2514,0.251,0.251,0.25,0.2498,0.2509,0.2509,0.2509,0,0.2544,0.2542,0.2538,0.2536,0.2535,0.2532,0.2531,0.253,0.2528,0.2525,0.2523,0.252,0.2517,0.2512,0.2511,0.2508,0.2508,0.2505,0.2508,0.2507,0.2507,0.2507,0.2506,0.2504,0.2504,0.2504,0.2504,0,0.254,0.2539,0.2536,0.2532,0.253,0.2527,0.2525,0.2523,0.2522,0.252,0.2516,0.2514,0.251,0.2506,0.2503,0.2502,0.2502,0.2503,0.2502,0.2501,0.25,0.25,0.2511,0.2503,0.2503,0.2503,0.2503,0.2503,0.2537,0.2534,0.2531,0.2527,0.2525,0.2522,0.252,0.2518,0.2515,0.2511,0.2511,0.2506,0.2503,0.2499,0.2497,0.2494,0.2495,0.2494,0.2493,0.2493,0.2492,0.2501,0.2493,0.2493,0.2493,0.2493,0.2493,0,0.2532,0.2529,0.2526,0.2522,0.2519,0.2519,0.2515,0.2513,0.2509,0.2506,0.2503,0.2498,0.2494,0.2492,0.2488,0.2485,0.2485,0.2484,0.2484,0.2484,0.2491,0.2492,0.2484,0.2484,0.2484,0.2484,0.2484,0.2484,0.2529,0.2524,0.2523,0.2516,0.2514,0.2509,0.2507,0.2504,0.2501,0.2496,0.2492,0.2491,0.2488,0.2483,0.2479,0.2479,0.2477,0.2476,0.2475,0.2482,0.2483,0.2484,0.2485,0.2475,0.2475,0.2467,0.2467,0.2467]}]]